Weather History for Atwater, CA

Change the Weather History Date:

Friday, June 28, 2013

  Actual Average (KMCE) Record (KMCE)
Temperature  
Mean Temperature 87 °F 76 °F  
Max Temperature 105 °F 93 °F 106 °F (2009)
Min Temperature 69 °F 60 °F 55 °F (2005)
Degree Days  
Heating Degree Days 0    
Month to date heating degree days  
Since 1 June heating degree days  
Since 1 July heating degree days  
Cooling Degree Days 22    
Month to date cooling degree days  
Year to date cooling degree days  
Since 1 June cooling degree days  
Growing Degree Days 37 (Base 50)    
Moisture  
Dew Point 57 °F    
Average Humidity 45    
Maximum Humidity 73    
Minimum Humidity 17    
Precipitation  
Precipitation 0.00 in 0.00 in 0.15 in (2011)
Month to date precipitation 0.13  
Year to date precipitation 8.68  
Since 1 July precipitation 12.50  
Snow  
Snow 0.00 in - - ()
Month to date snowfall  
Since 1 June snowfall  
Since 1 July snowfall  
Snow Depth -    
Sea Level Pressure  
Sea Level Pressure 29.93 in    
Wind  
Wind Speed 7 mph (North)    
Max Wind Speed 15 mph    
Max Gust Speed 20 mph    
Visibility 10 miles    
Events      
T = Trace of Precipitation, MM = Missing Value Source: NWS Daily Summary

Daily Weather History Graph

Daily Weather History Graph

Search for Another Location

Airport:

Trip Planner

Search our weather history database for the weather conditions in past years. The results will help you decide how hot, cold, wet, or windy it might be!

Date:

Astronomy

Jun. 28, 2013 Rise Set
Actual Time 5:44 AM PDT 8:27 PM PDT
Civil Twilight 5:13 AM PDT 8:58 PM PDT
Nautical Twilight 4:34 AM PDT 9:36 PM PDT
Astronomical Twilight 3:50 AM PDT 10:20 PM PDT
Moon No Moon Rise 11:49 AM PDT (6/28)
Length of Visible Light 15h 45m
Length of Day
14h 43m
Waning Gibbous, 65% of the Moon is Illuminated
Jun 28
Waning Gibbous
Jun 29
Last Quarter
Jul 8
New
Jul 15
First Quarter
Jul 22
Full

Hourly Weather History & Observations

Time (PDT) Temp. Heat Index Dew Point Humidity Pressure Visibility Wind Dir Wind Speed Gust Speed Precip Events Conditions
12:15 AM 75.2 °F - 60.8 °F 61% 29.98 in 10.0 mi NNE 4.6 mph - N/A   Clear
12:35 AM 75.2 °F - 59.0 °F 57% 29.98 in 10.0 mi NNE 5.8 mph - N/A   Clear
12:55 AM 75.2 °F - 57.2 °F 53% 29.98 in 10.0 mi NNE 5.8 mph - N/A   Clear
1:15 AM 75.2 °F - 57.2 °F 53% 29.98 in 10.0 mi NNE 6.9 mph - N/A   Clear
1:35 AM 75.2 °F - 55.4 °F 50% 29.97 in 10.0 mi North 9.2 mph - N/A   Clear
1:55 AM 75.2 °F - 55.4 °F 50% 29.97 in 10.0 mi North 8.1 mph - N/A   Clear
2:15 AM 75.2 °F - 55.4 °F 50% 29.96 in 10.0 mi NNE 5.8 mph - N/A   Clear
2:35 AM 75.2 °F - 55.4 °F 50% 29.96 in 10.0 mi North 5.8 mph - N/A   Clear
2:55 AM 73.4 °F - 55.4 °F 53% 29.96 in 10.0 mi North 4.6 mph - N/A   Clear
3:15 AM 73.4 °F - 55.4 °F 53% 29.95 in 10.0 mi NNE 4.6 mph - N/A   Clear
3:35 AM 73.4 °F - 55.4 °F 53% 29.95 in 10.0 mi NNE 4.6 mph - N/A   Clear
3:55 AM 73.4 °F - 55.4 °F 53% 29.96 in 10.0 mi NNE 4.6 mph - N/A   Clear
4:15 AM 73.4 °F - 55.4 °F 53% 29.96 in 10.0 mi North 6.9 mph - N/A   Clear
4:35 AM 73.4 °F - 57.2 °F 57% 29.96 in 10.0 mi North 6.9 mph - N/A   Clear
4:55 AM 71.6 °F - 57.2 °F 60% 29.96 in 10.0 mi North - - N/A   Clear
5:55 AM 69.8 °F - 59.0 °F 68% 29.96 in 10.0 mi North - - N/A   Clear
6:15 AM 69.8 °F - 60.8 °F 73% 29.96 in 10.0 mi North - - N/A   Clear
6:35 AM 73.4 °F - 60.8 °F 65% 29.96 in 10.0 mi North - - N/A   Clear
6:45 AM 73.4 °F - 60.8 °F 65% 29.96 in 10.0 mi NNW 11.5 mph - N/A   Clear
6:55 AM 75.2 °F - 60.8 °F 61% 29.96 in 10.0 mi North 6.9 mph - N/A   Clear
7:45 AM 80.6 °F 81.1 °F 59.0 °F 48% 29.97 in 10.0 mi NNW 11.5 mph - N/A   Clear
8:45 AM 84.2 °F 83.8 °F 59.0 °F 42% 29.98 in 10.0 mi NNW 11.5 mph - N/A   Clear
9:45 AM 87.8 °F 87.6 °F 60.8 °F 40% 29.97 in 10.0 mi NNW 9.2 mph - N/A   Clear
10:45 AM 93.2 °F 93.3 °F 60.8 °F 34% 29.96 in 10.0 mi North 6.9 mph - N/A   Clear
11:45 AM 96.8 °F 95.1 °F 55.4 °F 25% 29.96 in 10.0 mi North 9.2 mph - N/A   Clear
12:45 PM 100.4 °F 99.7 °F 57.2 °F 24% 29.94 in 10.0 mi NNW 11.5 mph - N/A   Clear
1:45 PM 100.4 °F 99.7 °F 57.2 °F 24% 29.92 in 10.0 mi NNW 11.5 mph - N/A   Clear
2:45 PM 102.2 °F 100.9 °F 55.4 °F 21% 29.90 in 10.0 mi North 15.0 mph - N/A   Clear
3:45 PM 105.8 °F 104.3 °F 53.6 °F 18% 29.88 in 10.0 mi NNW 11.5 mph - N/A   Clear
4:45 PM 104.0 °F 102.9 °F 55.4 °F 20% 29.86 in 10.0 mi North 12.7 mph 18.4 mph N/A   Clear
5:45 PM 104.0 °F - 51.8 °F 17% 29.86 in 10.0 mi NNW 15.0 mph 19.6 mph N/A   Clear
6:45 PM 102.2 °F 100.4 °F 53.6 °F 20% 29.85 in 10.0 mi NNW 11.5 mph - N/A   Clear
7:45 PM 98.6 °F 96.4 °F 53.6 °F 22% 29.85 in 10.0 mi NNW 9.2 mph - N/A   Clear
8:45 PM 89.6 °F 89.5 °F 60.8 °F 38% 29.85 in 10.0 mi NNW 9.2 mph - N/A   Clear
9:15 PM 84.2 °F 83.8 °F 59.0 °F 42% 29.85 in 10.0 mi North - - N/A   Clear
9:35 PM 82.4 °F 82.0 °F 57.2 °F 42% 29.86 in 10.0 mi North 8.1 mph - N/A   Clear
9:55 PM 82.4 °F 82.0 °F 57.2 °F 42% 29.86 in 10.0 mi North 8.1 mph - N/A   Clear
10:15 PM 82.4 °F 82.0 °F 57.2 °F 42% 29.87 in 10.0 mi North 9.2 mph - N/A   Clear
10:35 PM 82.4 °F 82.0 °F 57.2 °F 42% 29.87 in 10.0 mi NE 5.8 mph - N/A   Clear
10:55 PM 80.6 °F 80.8 °F 57.2 °F 45% 29.87 in 10.0 mi NE 5.8 mph - N/A   Clear
11:15 PM 78.8 °F - 57.2 °F 47% 29.87 in 10.0 mi NE 6.9 mph - N/A   Clear
11:35 PM 78.8 °F - 60.8 °F 54% 29.88 in 10.0 mi NE 4.6 mph - N/A   Clear
11:55 PM 77.0 °F - 60.8 °F 57% 29.87 in 10.0 mi ENE 5.8 mph - N/A   Clear